Location: Forest Hills
(36.0651°N, 86.8403°W)
Time: 19:17:56
(UTC+00:00)

ARIANE 6 FM1 Upper Stage - Pass Details

Date: 21 January 2026
Orbit: 522 x 609 km, 62.0° (Epoch: 6 February)

Event Time Altitude Azimuth Distance (km) Brightness Sun altitude
Rises 23:52:50 0° 195° (SSW) 2,732 6.6 -10.3°
Reaches altitude 10° 23:55:09 10° 188° (S) 1,825 5.6 -10.7°
Maximum altitude 23:58:59 39° 119° (ESE) 823 3.2 -11.5°
Enters shadow 00:01:42 17° 56° (ENE) 1,410 4.1 -12.0°
